Wind_Speed
18 17 18 19 20 21 22 23 23 22 21 19 17 16 16 15 13 11 9 9 8 7 6 5 4 3 2 1 0 2 3 5 7 8 10 11 12 13 14 14 14 14 14 14 13 12 11 11 10 10 10 10 10 10 11 11 11 11 11 11 10 10 11 11 11 11 11 11 11 11 12 13 13 13 14 14 15 17 18 19 20 20 20 21 22
17 16 17 19 20 20 21 23 24 24 22 20 19 18 16 16 14 12 10 9 8 8 7 7 6 5 4 3 1 1 3 4 6 8 10 11 13 13 14 14 13 13 13 13 13 12 11 10 10 10 10 10 10 11 11 11 11 11 11 11 10 10 10 10 10 11 11 10 10 10 11 12 13 14 15 16 16 17 18 19 20 21 22 22 22
17 16 17 18 19 20 20 22 23 24 24 22 21 19 17 17 16 14 12 11 10 9 8 8 7 6 5 4 4 3 4 6 7 9 11 12 13 14 14 13 12 12 12 12 12 12 12 11 11 10 10 10 11 11 11 11 11 11 12 11 11 10 10 10 10 10 11 11 10 11 11 12 13 14 15 16 17 18 18 19 20 21 22 22 23
18 17 17 17 18 20 21 21 22 23 23 22 21 20 19 19 18 16 15 14 13 11 10 9 8 7 7 6 6 6 7 8 9 10 12 12 13 14 13 13 12 11 11 11 11 11 12 12 12 12 12 12 12 12 12 12 12 13 13 13 13 12 11 11 11 11 11 12 12 12 13 14 15 15 16 16 17 18 18 19 20 21 21 22 22
19 18 18 17 19 21 22 22 22 22 21 20 20 19 19 19 19 18 17 16 15 14 12 11 10 9 8 8 8 9 9 10 11 12 13 13 13 13 13 12 12 11 11 10 11 11 11 12 13 13 13 14 14 14 13 13 14 14 15 15 14 14 13 13 12 13 13 13 14 14 15 16 17 17 17 17 17 18 18 18 19 20 21 20 20
20 19 19 19 20 21 22 23 23 22 21 20 19 19 18 19 19 18 18 17 17 16 14 13 12 11 11 11 11 11 12 13 13 14 14 14 13 13 13 12 12 11 11 10 10 11 11 11 12 12 13 13 14 14 14 15 15 15 16 16 16 16 15 15 15 15 15 15 16 17 17 17 17 17 17 17 17 18 17 17 18 19 19 19 19
22 21 20 21 21 22 23 24 24 22 21 21 20 20 19 19 19 18 18 18 18 17 16 14 13 13 14 14 14 14 14 14 14 14 14 14 14 13 12 11 11 11 11 11 10 10 11 11 11 11 12 12 13 13 14 14 15 16 16 17 17 17 17 17 17 18 18 18 18 19 19 18 17 17 17 17 17 18 18 18 17 16 16 17 18
24 22 21 22 23 23 23 23 23 22 22 22 22 22 21 20 19 18 18 19 18 18 17 16 15 16 17 17 16 16 15 14 14 14 14 14 14 13 12 11 11 10 10 10 10 10 11 11 11 11 11 12 12 12 13 13 14 15 15 16 17 18 18 18 18 18 19 19 19 19 20 19 17 17 17 17 17 18 19 19 17 15 14 15 16
27 25 23 23 24 23 22 21 20 21 21 22 23 24 23 22 20 20 20 20 19 18 18 17 17 18 18 18 18 17 16 15 14 14 14 14 14 14 12 11 10 10 9 10 10 10 11 11 11 11 12 12 12 12 12 12 13 14 14 15 16 17 17 18 18 18 18 19 19 19 20 20 19 18 18 18 18 19 20 20 18 16 15 16 17
30 28 26 26 25 24 22 21 20 20 21 23 24 24 24 23 23 23 23 22 21 20 19 19 19 19 18 19 19 18 17 15 14 14 14 14 14 13 12 11 10 9 8 9 9 10 10 11 12 12 12 13 13 13 12 12 13 13 13 13 14 15 16 16 17 17 17 18 19 19 19 20 20 19 19 19 19 19 19 19 18 17 17 18 19
32 32 30 28 27 25 24 23 22 22 23 24 24 25 25 25 25 25 25 24 23 22 21 21 20 19 19 18 18 18 16 14 13 14 14 13 13 13 12 11 10 8 8 8 9 9 10 10 11 12 13 13 14 14 14 14 14 14 14 13 13 13 14 15 16 17 17 17 19 19 19 20 20 20 20 19 19 20 19 19 19 19 20 20 20
34 34 33 31 29 28 27 27 26 25 26 26 26 27 26 26 26 26 27 26 25 24 23 23 21 20 19 18 18 17 15 14 13 14 13 13 13 13 12 12 10 8 8 8 9 9 10 10 11 12 13 14 15 15 15 16 17 16 16 14 14 13 14 14 15 16 17 17 17 18 19 19 19 20 20 19 18 19 19 19 20 21 21 22 21
36 35 34 32 31 30 29 28 27 27 27 27 27 27 27 27 27 27 27 26 25 25 24 23 22 20 19 18 17 15 14 13 13 13 13 13 13 13 13 13 11 9 8 8 9 9 10 11 11 12 14 15 15 16 17 18 19 19 18 17 16 15 15 15 15 17 18 18 17 17 18 18 18 18 19 17 16 17 18 18 19 20 21 22 22
37 35 34 33 31 29 28 27 26 25 24 23 23 23 24 24 24 23 23 23 24 24 24 23 22 21 19 18 16 15 14 12 12 13 13 13 13 14 15 14 12 10 9 9 9 10 10 11 11 12 14 15 16 17 18 19 20 20 20 20 18 17 16 15 16 18 19 19 18 17 16 17 17 16 17 16 15 15 15 16 18 19 20 20 22
37 35 35 34 33 30 28 28 27 25 22 19 19 20 21 21 20 19 18 19 20 21 21 21 21 21 19 17 16 16 14 13 13 14 14 14 14 16 16 14 12 11 10 10 10 11 11 11 11 12 14 15 16 17 19 20 20 21 21 21 20 18 16 16 17 19 20 20 19 17 15 15 15 14 14 15 14 14 14 15 16 18 19 19 21
37 35 35 35 35 33 32 31 29 26 23 20 19 19 20 20 20 19 18 18 19 19 20 21 21 20 18 17 17 18 16 14 14 15 15 15 16 17 16 14 13 13 12 11 11 11 12 12 11 12 13 15 16 18 19 19 19 20 21 21 20 18 16 16 19 21 21 20 18 16 15 14 14 13 12 12 13 13 14 14 14 16 18 19 20
41 39 38 38 38 38 36 33 31 30 28 26 24 21 19 18 18 19 19 20 20 21 21 21 20 19 19 19 20 20 18 17 17 17 18 17 18 18 17 15 14 14 13 11 11 12 12 12 12 12 13 14 16 18 19 19 18 19 19 20 20 19 17 18 20 21 21 20 18 16 15 13 12 12 10 10 11 12 14 14 14 15 17 18 20
49 47 45 44 43 42 40 37 34 31 30 30 29 25 22 21 20 19 20 21 22 23 23 22 22 22 22 22 22 22 21 20 20 20 20 19 19 18 17 16 16 15 13 11 12 12 12 11 12 12 13 14 17 19 21 20 18 17 18 19 20 20 19 20 21 21 20 19 18 15 13 12 10 9 8 9 10 12 14 15 14 14 16 18 21
52 51 48 47 46 44 41 40 37 34 32 32 32 31 29 26 23 22 22 23 24 25 26 26 25 25 25 25 25 24 23 22 22 22 21 20 20 19 18 17 16 14 12 11 12 13 13 12 12 13 14 15 17 20 22 23 20 17 17 18 18 19 20 21 22 22 20 18 17 14 12 10 8 6 6 8 11 14 17 17 16 16 18 19 21
54 53 52 50 49 46 44 43 41 38 37 36 34 34 34 32 28 26 26 27 28 29 29 29 28 28 28 28 27 27 25 24 23 23 22 22 22 21 19 18 16 13 11 11 12 13 13 13 13 14 14 15 17 20 23 25 23 19 18 18 18 18 19 21 23 23 21 19 17 15 12 10 8 5 4 8 13 17 20 21 21 21 20 20 20
55 55 54 52 51 49 47 47 46 43 41 40 39 38 38 37 35 33 32 31 32 34 33 32 32 32 31 30 30 29 27 25 24 24 23 23 23 22 21 19 15 12 12 13 13 13 12 12 13 14 14 16 18 20 23 26 25 22 20 19 18 18 18 20 22 23 23 21 19 17 14 12 9 7 5 8 14 19 22 25 26 26 24 22 21
58 56 56 54 53 52 50 49 49 47 45 44 45 44 43 41 41 40 40 40 39 39 38 37 36 35 34 33 32 31 29 26 25 24 24 24 23 23 23 21 15 12 13 14 14 13 12 12 13 14 14 16 18 21 24 27 26 24 22 21 20 19 19 19 21 23 24 23 22 21 18 15 12 10 9 10 14 19 23 26 28 29 28 26 23
62 59 58 56 54 54 53 52 52 51 49 48 48 47 46 45 44 44 45 45 45 43 40 40 41 39 36 35 35 33 31 28 27 26 26 26 26 25 25 23 18 14 14 14 14 14 13 12 12 13 14 16 18 22 25 27 27 25 24 23 23 22 20 20 21 23 24 24 24 23 21 17 14 12 11 12 16 20 23 27 29 30 30 29 26
67 62 60 59 56 54 55 55 55 54 53 52 51 49 47 46 46 46 47 46 45 43 41 43 45 43 40 39 38 37 35 33 31 30 28 28 29 29 28 26 21 17 16 16 15 15 14 13 12 13 15 17 20 23 25 26 27 26 25 25 25 24 23 22 22 23 23 23 23 22 20 17 14 13 12 15 19 21 23 27 29 30 30 29 27
71 66 63 63 60 57 56 57 57 58 57 56 55 52 50 48 48 47 47 45 43 43 45 48 49 47 45 43 42 40 39 37 36 34 33 31 31 31 30 27 24 22 21 20 19 16 15 15 15 16 19 21 22 24 24 24 25 27 27 26 27 27 26 25 25 25 24 23 22 22 20 18 16 16 17 19 21 22 24 26 28 30 29 28 26
75 71 65 65 65 63 61 58 58 60 60 59 58 56 53 52 51 50 48 46 46 47 48 50 50 50 49 47 45 43 40 38 37 37 36 35 33 32 30 28 27 27 26 26 24 19 15 15 17 20 22 24 24 24 25 24 24 26 28 28 28 29 29 28 27 27 27 25 23 22 21 19 18 18 21 24 25 24 24 25 28 29 27 26 24
78 76 69 67 69 69 65 62 61 62 63 62 60 58 56 56 55 54 52 50 50 51 52 51 52 52 52 50 48 45 42 40 39 38 37 37 36 33 30 29 30 31 31 29 27 22 17 17 19 21 23 24 24 24 25 26 25 25 27 29 30 30 30 31 30 30 30 28 24 22 22 22 20 19 21 26 29 28 27 27 29 29 26 24 23
80 79 74 71 71 71 69 67 66 65 65 64 61 59 58 59 59 59 56 52 52 54 55 54 54 55 55 53 50 48 45 43 42 41 39 37 37 36 34 32 33 34 33 31 28 24 22 21 21 22 23 23 23 24 25 26 26 26 26 27 29 30 30 31 32 33 34 31 27 24 23 23 22 21 22 27 30 30 29 29 30 30 27 24 23
82 81 79 76 75 74 72 71 70 69 68 66 63 60 59 60 62 62 59 54 52 54 56 56 56 57 56 54 52 50 48 47 46 43 39 37 38 40 39 38 36 35 33 32 29 26 25 26 27 27 26 24 23 23 25 26 27 27 27 27 28 29 30 31 33 35 37 37 34 31 28 25 24 23 23 27 31 31 30 31 31 32 30 27 26
84 83 84 83 80 78 76 75 74 73 71 69 66 63 61 62 63 64 62 60 58 58 59 59 58 57 56 56 55 54 53 51 48 44 42 41 42 42 43 42 39 35 33 33 31 29 29 30 31 32 31 28 26 25 24 25 27 28 28 27 28 29 30 31 33 35 37 38 39 38 34 30 28 27 26 28 31 32 31 31 32 33 33 31 30
87 85 87 88 86 82 79 78 78 77 75 73 70 67 65 65 66 66 65 63 61 62 63 62 60 57 56 57 58 58 58 56 51 47 45 44 43 43 43 42 40 36 35 35 34 33 33 33 33 33 33 31 30 27 26 26 27 27 28 28 29 30 31 32 33 35 36 37 39 39 37 34 33 31 29 30 32 32 32 32 32 33 34 33 33
91 89 88 91 91 87 83 81 80 80 78 76 74 71 69 69 68 67 67 66 63 61 62 63 61 58 56 56 56 56 58 58 55 50 46 44 43 43 43 41 40 38 36 37 37 36 36 35 35 35 34 33 32 30 29 29 29 28 28 29 30 32 33 34 34 34 36 37 38 38 36 35 35 34 32 32 32 32 33 33 32 33 35 35 35
94 93 91 93 95 93 88 84 83 82 81 79 76 73 72 73 72 69 68 68 64 62 62 63 61 59 57 56 54 51 52 55 55 50 46 45 44 43 42 40 40 39 38 38 39 39 39 38 37 36 36 35 34 32 32 32 32 31 29 30 32 33 35 34 33 34 36 36 36 36 36 35 36 37 37 36 34 32 33 33 33 33 36 37 37
97 97 95 95 97 97 94 90 87 84 83 82 80 75 73 75 76 72 70 68 65 63 64 64 62 60 59 58 55 52 50 52 53 50 48 46 45 44 42 41 41 41 40 40 40 41 41 39 38 38 38 37 36 35 35 35 35 34 32 31 32 34 35 34 33 34 36 36 36 37 38 38 38 40 40 40 38 35 34 34 34 35 36 38 40
98 99 99 98 98 100 99 96 91 88 86 85 84 80 76 76 78 77 74 70 66 64 65 65 63 62 62 61 59 57 54 52 52 51 49 48 47 45 44 43 43 43 43 41 41 42 42 40 40 40 40 39 38 38 38 38 38 38 36 33 32 33 34 34 34 35 37 38 38 39 40 41 42 42 42 42 42 41 39 37 36 36 37 39 42
101 101 102 101 100 101 103 101 97 93 90 89 88 86 81 78 79 80 80 76 71 68 68 68 67 66 66 65 65 63 59 55 54 53 51 50 48 47 46 46 47 46 45 43 43 43 42 42 42 42 41 40 40 41 41 41 41 41 39 37 35 34 35 35 34 36 39 39 39 39 42 44 46 47 46 44 44 46 44 41 38 38 39 40 42
104 103 104 104 103 103 105 105 102 98 95 93 91 89 86 82 81 82 84 83 79 75 73 72 70 69 69 69 69 68 65 61 59 57 55 54 52 51 50 49 49 48 47 46 45 44 44 44 44 43 42 42 42 42 42 42 41 41 41 38 36 37 37 36 36 38 41 42 40 40 43 45 48 50 50 46 46 47 46 43 41 41 42 42 43
108 107 106 106 105 105 105 107 106 102 98 96 95 93 90 87 84 84 84 85 83 80 78 76 75 74 74 74 73 71 68 65 62 61 59 58 57 55 53 51 50 49 49 49 47 46 46 46 45 45 44 43 41 41 41 41 41 41 40 38 37 38 39 38 39 41 44 44 44 43 44 46 47 48 49 48 47 47 47 46 44 45 46 45 44
111 110 108 107 107 107 107 108 108 106 103 100 99 97 95 92 89 87 85 85 85 83 81 80 79 79 80 79 76 74 71 68 65 64 63 62 60 58 56 54 53 52 52 51 49 48 48 48 48 47 45 43 41 40 39 40 41 40 38 36 37 38 40 40 42 44 47 48 48 46 46 47 48 48 49 51 50 48 49 50 49 49 50 49 47
113 112 111 110 110 110 109 109 109 109 107 105 103 101 99 96 93 90 88 86 86 86 85 84 83 84 84 83 81 79 76 73 69 67 66 65 63 62 60 58 57 56 54 52 51 50 49 50 50 47 44 42 42 41 40 41 42 41 39 38 40 42 43 44 44 46 49 51 51 49 49 50 51 51 51 52 52 51 52 53 53 52 52 51 50
116 115 114 113 112 112 112 111 110 110 110 110 109 106 103 100 97 95 92 89 88 88 88 87 87 88 88 86 85 83 80 77 74 72 70 68 66 64 63 61 60 58 56 54 53 52 51 50 48 44 42 42 44 45 44 44 45 44 44 45 46 47 48 49 49 49 50 52 53 53 52 53 54 55 55 55 55 54 54 53 52 52 51 51 50
119 117 116 115 114 114 114 114 113 111 110 111 113 112 109 105 102 99 96 93 91 90 90 91 91 92 91 90 88 86 84 81 78 76 73 71 69 67 65 64 63 61 59 57 55 53 51 50 50 47 47 48 50 50 51 51 51 51 50 51 52 53 53 53 55 55 53 54 55 55 56 57 58 58 57 58 58 56 55 53 52 51 51 50 50
122 120 119 118 117 116 116 116 115 114 112 111 112 113 114 112 109 106 103 99 96 95 94 94 94 94 94 93 92 90 87 84 81 79 77 76 74 71 69 67 66 64 62 61 59 56 53 51 50 52 55 59 59 59 57 56 53 51 50 51 53 56 57 56 57 58 57 56 56 57 58 60 61 59 58 58 58 57 55 54 53 53 53 52 52
126 124 122 120 119 118 118 117 117 117 116 114 112 112 113 113 113 111 109 107 105 102 100 99 98 97 96 95 94 93 90 87 85 83 82 81 79 77 75 73 71 68 67 64 63 61 57 51 49 55 62 64 61 57 55 52 49 46 46 49 55 60 62 62 61 62 61 61 60 60 60 62 63 61 59 59 59 58 57 57 56 56 55 53 50
128 126 125 123 121 120 120 119 118 118 118 117 115 113 113 112 112 112 111 110 109 107 105 104 103 101 99 97 95 94 92 90 89 87 86 85 84 83 81 79 76 74 72 69 67 65 60 54 54 62 68 66 60 56 54 53 50 46 45 49 55 60 64 66 67 67 67 66 66 65 65 65 65 65 63 61 60 59 59 57 56 56 55 52 49
130 129 127 126 124 122 121 120 119 119 118 118 117 116 115 114 114 113 112 111 110 109 108 107 106 104 103 100 99 97 95 93 92 91 90 89 88 86 85 83 80 78 76 74 72 70 66 63 64 67 69 68 65 63 62 62 60 56 55 57 61 65 69 70 70 70 70 70 69 69 69 68 67 66 65 63 61 59 58 56 54 54 54 53 51
132 131 129 128 126 124 123 121 120 119 119 118 118 117 117 116 116 115 114 112 111 110 109 108 107 105 104 103 101 99 96 95 94 93 92 91 90 89 88 86 84 82 80 78 76 74 73 71 71 71 71 71 70 69 67 67 66 65 64 65 66 67 70 71 71 71 71 72 72 73 74 72 70 67 64 62 60 59 58 56 55 55 57 58 57
133 132 131 130 128 126 125 123 122 121 120 119 118 117 117 116 116 116 115 114 112 111 110 109 107 106 104 103 102 100 98 96 95 95 95 94 93 92 90 89 87 85 84 81 79 78 76 75 74 73 73 73 73 71 68 68 70 70 70 70 70 71 72 74 74 73 71 71 72 74 75 75 72 68 64 62 60 57 55 54 56 60 64 67 69
133 132 132 131 130 128 126 125 124 123 121 119 118 117 116 116 116 115 115 115 114 113 112 111 109 107 106 104 103 101 99 98 96 96 97 97 96 94 92 90 89 87 86 84 82 80 78 77 76 75 74 74 73 73 72 73 75 76 75 75 75 73 71 69 68 67 67 69 72 74 75 75 73 69 65 62 59 55 53 57 63 69 72 74 76
133 133 132 132 131 130 128 127 126 125 122 120 118 117 116 116 115 115 115 115 115 115 114 114 113 111 109 107 105 103 100 98 97 96 97 97 97 96 94 92 90 89 87 85 83 81 80 79 79 78 78 77 77 78 79 79 80 81 80 79 78 76 72 70 70 71 73 77 79 79 78 78 77 73 69 67 65 64 65 69 74 76 76 75 76
133 132 132 132 132 131 129 128 128 127 124 122 120 119 118 117 115 115 115 114 114 115 116 116 116 115 113 110 108 106 104 101 99 97 96 96 96 95 94 92 91 90 88 87 85 84 83 83 82 82 82 81 81 82 83 83 83 84 83 83 84 83 82 80 79 78 78 79 79 78 78 80 81 79 76 74 74 76 78 79 79 79 78 78 77
Wind_Direction
226 224 219 218 218 211 207 208 213 219 224 225 226 226 225 226 226 223 220 220 218 217 219 223 224 220 209 188 53 25 11 6 1 358 356 353 351 349 347 346 346 347 350 352 356 360 3 5 6 7 9 10 11 13 15 16 17 19 21 22 24 24 22 22 21 21 20 18 14 9 3 359 358 360 0 359 356 354 355 357 357 357 355 354 357
228 230 223 218 221 220 212 208 210 216 221 224 226 229 228 228 230 229 228 228 225 224 227 230 231 228 225 225 236 289 325 335 338 338 339 339 340 340 339 340 340 342 343 345 348 351 354 358 359 0 0 1 3 5 5 7 7 8 9 11 13 14 14 12 10 10 8 6 4 359 355 351 349 349 350 351 350 349 349 351 351 352 353 351 354
228 233 229 220 219 222 221 216 214 215 218 220 223 228 229 229 230 230 230 232 231 232 235 238 237 234 232 233 245 266 288 303 314 320 324 327 331 331 332 333 334 335 338 340 342 344 346 348 351 352 353 354 355 357 357 358 358 358 358 357 358 0 1 0 359 357 354 351 348 346 344 343 342 341 341 342 343 343 344 345 344 345 346 348 350
229 233 234 226 218 219 222 223 222 221 221 220 223 226 227 229 229 228 231 234 235 237 240 243 244 242 241 245 254 266 281 293 302 309 314 320 324 323 324 326 327 328 331 333 336 339 340 341 343 345 347 348 349 350 350 349 349 349 347 345 346 347 348 349 348 346 344 340 339 339 343 345 343 340 337 336 336 338 340 341 340 340 341 343 346
231 234 236 232 223 219 220 224 226 227 227 227 228 230 231 232 232 230 232 235 238 241 244 247 249 250 253 257 265 274 284 294 301 307 312 316 317 316 317 319 319 322 325 328 332 334 336 338 339 341 343 344 345 345 345 344 344 343 342 341 341 342 342 343 343 341 339 337 337 339 345 350 350 346 341 336 333 335 338 339 338 337 338 341 346
229 232 235 235 229 223 221 223 225 227 229 229 232 235 238 239 239 237 237 239 242 245 248 251 254 258 260 264 270 278 286 294 301 308 312 313 311 309 309 311 313 315 319 324 328 331 333 335 336 339 340 341 341 340 340 339 339 339 339 340 341 341 341 342 342 340 338 337 337 338 342 348 351 350 347 341 336 335 339 342 341 338 338 340 346
224 226 230 233 233 229 225 224 225 227 229 230 233 236 240 243 244 245 245 246 247 250 254 257 261 264 265 268 273 278 285 293 299 305 309 308 305 302 301 304 307 310 315 320 324 327 329 331 332 334 336 337 336 336 335 333 333 333 334 336 336 336 336 337 337 336 335 334 334 333 335 341 346 348 346 342 339 338 340 342 343 342 341 342 344
221 221 225 230 232 232 229 227 227 227 229 231 234 237 240 243 246 249 251 252 252 255 259 262 265 267 270 273 277 282 287 293 297 300 303 301 297 295 295 297 300 304 309 314 318 321 324 326 329 331 333 335 335 334 333 331 329 330 330 331 330 330 330 330 330 330 329 329 329 328 329 333 338 340 339 338 338 339 339 340 342 345 344 343 343
220 217 219 224 229 231 230 228 227 227 230 233 235 238 240 243 246 249 251 253 255 258 261 264 265 267 270 274 279 282 286 290 294 295 295 294 290 289 291 293 294 298 302 307 310 315 320 324 327 332 336 338 340 341 340 336 335 334 335 333 331 330 329 328 328 327 326 325 324 323 323 325 329 331 331 331 332 334 335 337 339 341 341 340 340
219 217 216 219 223 227 228 225 222 222 227 232 236 239 242 243 245 246 248 251 254 256 259 262 264 265 268 272 276 279 281 283 287 289 288 286 284 285 288 289 290 294 299 302 305 311 317 322 326 332 336 339 343 346 345 342 340 341 342 340 337 334 331 330 328 326 325 323 321 321 320 321 326 329 329 330 331 331 333 333 333 333 334 334 334
219 219 216 215 217 220 223 222 218 216 220 226 232 237 240 242 244 245 247 249 250 252 255 258 260 263 265 268 271 273 275 278 281 282 281 280 280 282 284 285 286 292 298 300 303 308 314 319 324 329 333 337 343 347 348 347 346 347 349 348 342 336 333 331 327 324 323 321 319 319 321 324 328 330 331 332 332 331 331 330 326 325 325 326 327
220 222 220 216 214 215 218 218 216 213 212 215 220 226 232 236 240 243 245 246 247 249 252 255 257 260 262 263 265 268 271 274 276 276 275 275 276 277 278 278 281 286 292 297 300 305 311 316 322 327 329 333 341 346 347 350 353 354 354 351 344 338 334 330 326 322 320 320 321 323 326 329 332 331 331 333 333 330 329 327 323 322 321 322 323
220 223 224 221 217 217 218 219 218 215 212 211 213 215 220 225 229 233 235 239 242 245 248 250 253 256 258 259 261 263 265 268 270 271 272 272 272 273 272 271 274 277 282 288 294 299 306 313 320 325 328 333 339 342 345 351 357 359 357 353 347 342 338 332 325 320 320 325 332 336 333 332 334 333 329 331 333 330 327 327 324 322 322 321 320
219 223 226 226 223 222 222 224 225 222 219 216 216 217 220 224 225 227 229 231 235 238 241 244 247 251 254 254 256 258 257 258 262 265 266 268 269 268 267 267 269 273 276 280 287 293 299 308 317 323 327 332 335 337 341 348 356 1 0 356 351 348 344 335 324 322 326 333 342 346 341 334 335 334 329 330 335 331 326 326 325 323 324 324 322
220 223 225 226 225 222 221 223 226 228 226 223 221 221 226 232 235 235 234 233 233 234 235 238 241 244 245 246 249 251 248 247 252 256 256 259 261 262 262 265 268 272 274 276 282 288 295 304 314 320 325 330 330 331 337 344 353 359 0 358 356 354 348 335 327 329 336 342 346 348 344 336 333 332 329 330 334 332 326 326 326 327 329 331 331
223 226 228 227 225 222 220 218 219 221 221 222 224 225 227 232 237 241 242 241 240 237 235 234 234 235 236 239 242 243 239 236 240 243 243 246 250 254 257 262 267 269 272 275 278 285 293 303 312 319 324 327 325 326 330 339 348 354 356 357 356 356 348 334 331 338 344 346 347 345 343 336 331 331 331 333 334 332 328 328 330 333 336 340 344
219 223 225 224 223 222 220 217 215 214 211 212 219 226 232 236 238 239 242 243 242 240 237 234 231 231 231 233 235 234 230 229 231 233 235 238 243 248 253 258 262 265 269 273 277 283 293 305 314 321 324 323 321 321 322 330 343 350 351 352 354 353 346 336 336 345 348 347 345 343 342 339 334 333 340 345 344 337 332 332 334 338 341 345 352
213 215 217 218 219 220 218 217 216 213 209 208 211 216 227 240 245 243 243 244 244 242 240 237 234 232 230 230 232 231 228 226 229 230 232 234 239 245 250 253 257 262 267 272 276 284 297 311 320 323 324 321 318 317 316 321 335 345 345 347 350 349 343 336 338 345 347 344 341 340 340 339 335 337 349 355 352 342 335 334 335 339 343 346 352
213 213 213 214 217 219 217 215 215 213 211 210 210 210 214 225 238 248 251 250 248 245 242 240 237 235 234 232 233 234 231 229 229 232 233 235 239 243 246 250 254 258 266 272 277 285 299 315 322 324 324 322 318 315 313 315 327 340 343 343 346 345 339 334 335 339 341 339 335 333 333 332 326 333 351 354 349 342 336 333 332 334 341 344 348
214 214 214 213 215 216 215 214 214 212 212 213 214 214 212 212 220 234 246 253 255 251 246 243 240 238 237 236 236 237 236 233 233 235 235 237 240 243 245 247 251 257 263 267 271 280 295 309 316 319 322 320 315 312 310 312 321 335 341 339 340 341 335 330 329 331 332 332 330 326 326 323 313 311 336 347 344 339 334 330 328 328 333 338 343
215 216 215 215 215 214 213 213 213 212 211 213 216 219 216 211 211 217 226 235 245 250 248 245 243 241 240 239 238 239 240 238 237 239 240 242 243 245 247 249 253 259 263 265 270 280 292 299 303 308 313 314 311 308 307 309 319 331 338 335 333 333 329 326 324 323 324 327 328 325 321 314 301 289 302 329 336 335 332 328 325 324 326 331 336
216 216 216 216 217 216 214 214 214 213 212 214 216 218 216 212 211 214 215 216 224 237 246 247 244 242 242 241 241 241 243 244 243 243 246 248 249 250 250 252 256 264 269 272 276 284 291 295 298 298 300 303 304 302 303 308 318 328 332 329 325 323 321 319 319 319 319 324 330 331 327 317 299 283 287 312 327 331 329 326 324 324 324 326 330
215 217 216 216 217 217 217 217 216 215 214 216 218 218 216 214 214 218 218 216 216 224 235 243 244 243 241 241 242 243 245 248 249 248 248 250 251 252 253 254 258 265 276 282 283 283 287 296 304 301 294 291 293 296 300 308 318 325 326 322 318 315 314 313 315 316 317 322 331 336 334 321 297 280 286 307 320 325 324 322 321 323 325 325 327
214 216 216 215 215 217 218 219 218 216 215 217 219 219 219 218 219 221 222 222 220 220 225 235 241 242 241 240 240 241 244 247 250 251 250 249 250 251 252 254 257 264 277 285 285 282 285 295 306 306 295 285 285 291 300 309 318 322 321 317 313 311 311 311 313 315 316 320 327 332 331 320 300 292 300 309 313 317 320 320 318 319 322 324 323
213 215 215 214 213 215 217 219 219 217 217 218 218 218 219 219 221 222 222 224 225 224 225 230 236 239 240 240 239 239 241 243 246 249 250 249 250 250 251 253 256 262 271 279 282 284 291 298 300 298 295 291 291 295 303 312 319 320 318 315 311 310 310 311 313 313 312 314 318 321 322 318 307 305 309 309 308 310 314 316 314 314 319 320 319
212 213 214 213 213 216 218 219 220 219 218 219 220 219 219 219 218 219 220 223 226 227 227 229 232 235 237 238 238 239 239 240 242 245 247 247 248 249 251 251 254 258 265 272 278 283 292 297 294 292 295 301 304 305 308 313 318 319 317 315 311 310 309 309 308 307 305 306 308 309 312 312 307 303 304 303 303 307 310 310 308 310 316 317 315
213 212 212 212 213 217 219 220 220 219 218 220 222 221 220 219 218 217 218 223 228 230 229 229 230 233 235 237 239 239 239 239 240 242 244 244 245 248 252 253 252 254 260 268 276 281 284 286 287 291 297 304 309 311 312 315 317 317 315 313 312 310 308 305 304 302 299 298 300 302 304 306 305 303 301 298 298 302 305 304 303 306 312 315 313
213 212 211 212 214 216 219 220 220 218 217 219 222 223 222 221 219 218 219 224 230 231 229 228 229 232 234 237 239 240 239 238 238 240 242 243 244 247 251 252 251 252 258 266 274 278 276 274 277 284 292 299 305 307 307 308 312 313 310 308 308 308 305 303 301 298 295 294 296 297 295 296 299 301 299 295 294 297 300 300 299 302 307 309 309
214 212 211 212 214 216 218 220 220 219 217 218 221 224 224 223 221 221 223 227 232 232 230 229 230 232 235 237 239 241 240 239 239 239 240 241 243 245 248 251 252 254 258 264 270 272 270 269 272 277 284 291 296 297 296 297 302 306 306 305 304 303 302 303 301 299 297 298 299 297 292 289 290 291 291 289 289 292 296 297 297 297 298 300 300
214 213 211 213 215 216 217 219 220 218 217 218 221 225 226 224 223 224 226 229 232 234 233 232 232 234 236 238 240 241 242 241 240 238 237 238 240 243 247 251 253 255 258 261 264 265 266 267 271 275 280 286 289 289 290 291 293 296 299 301 300 298 298 299 299 300 300 300 299 297 295 291 288 285 284 285 286 289 293 294 295 294 293 293 296
215 214 212 213 216 217 217 218 220 219 217 219 222 224 226 224 224 225 227 229 232 235 234 233 234 235 237 240 242 242 242 242 240 237 236 237 240 243 246 249 252 255 257 258 260 262 264 267 271 274 279 284 287 288 289 289 289 290 293 295 295 294 293 295 297 299 299 297 295 295 295 292 288 285 284 284 286 290 292 292 293 293 290 291 296
215 215 214 214 216 217 217 218 219 219 218 218 221 224 224 223 223 226 227 229 233 235 233 232 234 236 238 241 243 243 242 241 239 238 238 239 240 243 246 248 251 253 255 257 260 262 264 267 270 274 279 283 286 288 289 289 289 290 292 293 293 292 292 293 296 297 297 297 297 299 298 294 289 286 285 284 285 288 289 289 292 292 290 290 294
215 215 215 214 215 217 217 217 218 219 218 218 220 223 223 221 223 226 228 230 233 234 232 232 234 236 238 240 240 241 241 240 238 239 240 241 242 245 247 250 252 253 254 255 259 262 265 267 270 274 278 282 285 288 289 290 290 290 292 293 293 292 292 294 295 294 295 297 299 301 302 301 296 290 286 284 284 284 286 288 291 292 291 290 291
215 215 215 215 215 217 217 217 218 219 219 218 220 222 222 221 222 225 228 230 232 232 231 231 234 236 238 237 237 239 241 240 239 240 242 242 244 246 248 251 253 254 255 256 259 262 265 268 271 274 277 281 286 288 289 290 291 292 291 291 291 291 292 294 294 293 294 295 298 300 302 302 301 296 290 285 283 282 283 285 289 292 293 292 289
216 215 216 215 215 216 218 218 218 219 220 220 221 223 223 222 222 224 226 228 230 231 231 231 233 236 237 236 234 236 240 241 242 243 243 243 245 246 248 250 254 255 257 258 260 262 264 266 270 273 276 280 285 288 289 291 293 293 291 289 288 289 289 290 290 291 292 293 295 298 300 301 301 298 293 287 283 282 282 284 287 291 293 293 291
219 217 216 216 215 216 218 219 218 218 219 220 221 223 225 224 223 224 226 228 230 232 232 232 233 235 236 235 233 234 239 244 246 245 244 244 246 247 248 251 254 257 259 260 261 262 263 265 269 274 276 278 282 287 291 294 294 292 290 287 286 287 286 286 286 286 287 290 293 296 299 301 300 298 294 288 282 281 283 286 288 290 293 294 293
220 219 217 217 216 216 217 219 219 218 219 220 221 223 225 225 225 225 227 229 231 232 231 232 233 234 235 234 232 233 239 245 247 246 245 246 247 248 250 253 255 258 260 259 260 262 264 265 269 274 276 278 281 287 293 296 296 293 289 286 285 287 287 286 286 285 286 289 293 296 299 301 301 300 297 290 282 279 281 286 290 291 292 293 293
221 220 219 218 217 216 217 219 219 218 218 220 221 222 224 225 226 226 227 229 231 232 232 231 232 232 233 233 233 234 239 244 246 246 246 247 248 250 252 254 256 259 260 258 258 261 263 266 270 274 276 279 284 290 295 297 297 295 289 283 283 287 288 287 288 289 290 292 294 296 299 302 302 300 299 294 285 279 279 284 290 293 293 294 292
221 221 220 219 217 217 218 219 219 218 218 219 221 222 224 225 226 227 228 230 232 233 233 233 233 233 233 233 234 235 238 242 245 246 247 248 249 251 252 254 257 259 260 258 257 258 261 264 268 272 276 281 287 292 295 295 295 294 288 281 281 286 288 288 289 291 292 293 295 296 299 302 301 298 298 296 290 282 279 283 289 293 294 294 291
220 221 221 220 219 218 218 219 219 219 218 219 220 221 223 225 226 227 228 230 232 233 234 235 235 235 234 234 235 236 238 242 245 247 248 249 250 251 253 255 258 259 259 257 255 256 258 261 264 270 276 282 287 291 292 292 292 290 287 284 283 285 287 288 290 291 291 292 294 295 297 300 300 297 295 295 292 285 281 282 286 291 293 292 288
220 220 221 221 220 220 219 219 220 219 219 219 220 221 222 224 225 226 228 230 232 233 234 235 237 237 237 237 237 238 240 243 246 247 248 249 250 251 253 255 257 258 257 254 252 254 256 257 261 269 278 284 288 290 292 292 291 289 287 286 285 285 286 287 288 290 291 292 293 293 294 297 299 296 293 293 292 288 282 281 284 288 290 289 286
220 220 220 221 221 221 220 220 220 220 220 220 220 221 223 224 225 226 227 229 231 233 234 236 237 238 239 239 240 241 243 245 246 247 248 249 249 251 253 255 256 256 255 253 252 254 256 256 258 266 276 282 284 286 289 290 290 289 288 288 286 285 285 286 287 288 289 291 292 292 292 294 297 296 292 291 291 288 283 280 282 285 286 286 284
220 220 220 221 221 222 221 221 221 221 221 221 221 222 223 225 226 227 228 229 231 233 235 237 238 239 239 240 242 243 244 245 246 246 247 248 248 250 252 254 255 255 255 253 252 253 257 259 261 267 273 276 277 280 284 286 287 287 288 289 287 285 285 285 286 287 289 291 291 291 290 292 295 294 290 288 289 287 283 281 282 284 285 286 284
220 220 220 221 221 222 222 222 222 222 223 223 223 223 224 225 227 228 229 230 231 233 235 237 238 239 240 241 242 243 244 245 245 246 246 247 248 249 251 253 254 254 254 254 253 253 256 260 263 265 266 267 270 274 277 278 280 282 284 285 286 285 284 284 285 287 289 291 291 290 289 289 291 291 288 285 285 285 283 283 284 285 286 286 283
220 220 220 221 221 222 222 223 223 223 223 224 224 225 225 226 227 228 229 230 232 233 234 236 238 239 240 241 242 243 244 245 246 246 247 247 248 249 251 252 253 253 253 253 254 254 255 256 257 259 261 264 267 269 269 268 270 273 277 279 279 279 279 281 283 285 288 290 290 289 287 287 289 289 286 283 282 282 282 283 285 286 285 283 280
220 220 221 221 221 222 222 223 223 224 224 224 225 225 226 226 227 228 229 231 232 234 234 235 237 239 240 240 242 243 244 245 246 246 247 248 248 249 250 251 252 253 253 253 254 255 254 253 254 258 262 265 267 268 268 267 267 269 270 271 271 271 273 277 281 283 285 286 287 286 285 287 290 291 286 281 279 280 280 281 284 285 283 280 276
220 221 221 222 222 222 223 223 224 224 224 225 225 226 226 227 228 229 230 231 233 234 235 236 237 238 239 240 241 242 243 244 245 246 247 248 248 249 250 251 251 252 252 253 253 254 254 255 256 258 261 262 263 265 267 269 270 271 272 272 271 271 272 275 279 281 283 283 283 283 283 285 290 291 286 279 276 277 278 280 283 285 284 280 276
220 221 221 222 223 223 223 224 224 224 225 225 226 226 227 227 228 229 230 231 232 234 235 236 236 237 239 240 241 242 243 244 245 246 247 248 249 249 250 251 251 252 253 253 253 254 254 255 257 259 260 260 261 262 264 267 269 272 274 274 273 273 274 277 279 281 281 282 282 282 281 282 286 287 283 277 274 275 275 277 282 285 284 283 281
220 221 221 222 223 223 223 224 225 225 225 225 226 226 227 228 228 229 230 231 232 233 234 235 236 238 239 240 241 242 243 245 246 247 247 248 249 249 250 251 252 252 253 253 254 254 254 254 256 258 260 260 260 261 264 267 270 271 273 274 275 275 277 278 279 280 280 281 283 283 281 280 281 283 280 275 273 272 272 274 279 283 283 282 281
221 221 222 223 224 224 224 224 225 226 226 226 226 227 227 228 229 229 230 231 232 233 233 235 236 238 239 239 240 242 243 245 246 247 247 248 249 250 250 251 252 252 253 253 254 254 254 254 256 258 260 261 261 263 265 267 269 271 272 273 274 275 276 276 277 278 281 282 283 282 281 279 280 281 278 273 271 272 273 276 279 281 282 282 282
222 222 222 223 224 225 225 225 226 226 227 227 227 227 228 228 229 229 230 231 232 233 233 234 236 237 238 239 240 241 243 245 246 247 247 248 249 249 250 250 251 252 253 254 254 255 255 256 257 259 261 263 264 265 266 268 269 271 272 274 275 276 276 276 276 278 280 282 282 282 279 277 277 278 277 273 271 272 274 276 279 280 281 282 284
Height
10995 10997 10999 11001 11002 11004 11006 11008 11010 11012 11013 11015 11016 11017 11019 11020 11021 11022 11022 11023 11024 11024 11025 11026 11026 11026 11026 11026 11026 11026 11027 11027 11027 11027 11027 11027 11026 11026 11026 11025 11025 11024 11024 11023 11023 11023 11023 11022 11022 11022 11021 11021 11020 11019 11018 11018 11017 11016 11016 11015 11015 11014 11014 11013 11012 11011 11010 11009 11007 11006 11004 11003 11002 11001 11000 10999 10998 10996 10994 10993 10991 10990 10988 10987 10986
10994 10996 10997 10999 11001 11002 11004 11006 11008 11010 11012 11014 11015 11016 11018 11019 11020 11021 11022 11023 11023 11024 11025 11025 11026 11026 11026 11026 11026 11026 11026 11027 11027 11027 11027 11026 11026 11026 11025 11025 11025 11024 11023 11023 11023 11022 11022 11022 11022 11022 11021 11020 11020 11019 11018 11017 11017 11016 11016 11015 11015 11014 11013 11012 11011 11010 11009 11008 11007 11005 11004 11003 11002 11001 11000 10999 10997 10996 10994 10992 10991 10989 10988 10986 10985
10993 10994 10996 10997 10999 11001 11003 11004 11005 11007 11009 11012 11013 11015 11016 11018 11019 11020 11021 11022 11023 11024 11024 11025 11026 11026 11026 11026 11026 11026 11026 11026 11026 11026 11026 11026 11026 11025 11025 11025 11024 11024 11023 11023 11022 11022 11022 11021 11021 11021 11021 11020 11020 11019 11018 11017 11016 11016 11015 11015 11014 11013 11013 11012 11011 11010 11008 11007 11006 11005 11004 11003 11002 11000 10999 10998 10997 10995 10993 10992 10990 10989 10987 10986 10984
10991 10993 10994 10996 10998 10999 11001 11002 11004 11006 11008 11010 11011 11013 11015 11016 11017 11019 11020 11021 11022 11023 11024 11024 11025 11026 11026 11026 11026 11026 11026 11026 11026 11026 11025 11025 11025 11024 11024 11024 11023 11023 11023 11022 11022 11022 11021 11021 11020 11020 11020 11020 11019 11019 11018 11017 11016 11015 11015 11014 11013 11013 11012 11011 11010 11009 11007 11006 11005 11004 11003 11002 11001 11000 10999 10998 10996 10995 10993 10991 10990 10988 10987 10985 10984
10990 10991 10993 10994 10996 10997 10999 11001 11002 11004 11006 11008 11010 11012 11013 11014 11015 11017 11018 11019 11020 11021 11022 11023 11024 11025 11025 11026 11026 11026 11026 11026 11026 11025 11025 11024 11024 11024 11023 11023 11023 11022 11022 11022 11021 11021 11021 11020 11020 11019 11019 11019 11018 11018 11017 11017 11016 11015 11014 11013 11012 11012 11011 11010 11009 11008 11006 11005 11004 11003 11002 11002 11001 11000 10999 10997 10995 10994 10993 10991 10989 10987 10986 10985 10983
10987 10989 10991 10992 10994 10995 10997 10998 11000 11002 11004 11007 11008 11010 11011 11013 11014 11015 11016 11017 11019 11020 11021 11022 11023 11024 11024 11025 11025 11025 11025 11025 11025 11025 11025 11024 11024 11023 11022 11022 11022 11021 11021 11021 11020 11020 11020 11019 11019 11019 11018 11018 11017 11017 11016 11015 11015 11014 11013 11012 11011 11010 11009 11008 11007 11006 11005 11004 11003 11002 11001 11001 11001 10999 10998 10996 10994 10992 10991 10990 10989 10987 10985 10983 10982
10983 10986 10988 10990 10991 10993 10994 10996 10998 11000 11002 11004 11006 11008 11009 11010 11012 11013 11014 11016 11017 11018 11019 11020 11022 11022 11023 11023 11024 11024 11024 11024 11024 11024 11024 11024 11023 11022 11022 11021 11021 11021 11020 11020 11019 11019 11018 11018 11018 11017 11017 11017 11016 11016 11015 11014 11013 11013 11012 11011 11010 11009 11008 11007 11006 11005 11004 11003 11002 11001 11000 11000 11000 10998 10997 10995 10993 10991 10990 10989 10988 10986 10985 10983 10981
10979 10982 10985 10987 10988 10989 10991 10993 10995 10998 11000 11002 11004 11005 11006 11008 11010 11011 11012 11013 11015 11016 11017 11019 11020 11021 11021 11022 11022 11023 11023 11023 11023 11023 11023 11023 11022 11022 11021 11021 11021 11020 11019 11019 11018 11017 11017 11016 11016 11016 11016 11015 11015 11014 11013 11013 11012 11011 11011 11010 11009 11007 11006 11005 11004 11003 11002 11001 11000 10999 10998 10998 10998 10997 10995 10994 10992 10991 10989 10988 10987 10986 10985 10983 10981
10974 10977 10980 10982 10984 10986 10988 10990 10992 10995 10997 10999 11001 11002 11004 11005 11007 11009 11010 11011 11012 11014 11015 11016 11018 11019 11019 11020 11020 11021 11021 11022 11022 11022 11022 11022 11021 11021 11021 11021 11020 11020 11019 11018 11017 11017 11016 11015 11015 11015 11014 11014 11013 11013 11012 11011 11011 11010 11009 11008 11007 11006 11005 11004 11003 11002 11001 11000 10999 10998 10997 10996 10995 10995 10994 10993 10992 10990 10989 10987 10986 10985 10984 10982 10981
10970 10972 10975 10977 10980 10982 10984 10986 10989 10991 10993 10995 10997 10999 11001 11002 11004 11006 11007 11008 11009 11011 11012 11013 11015 11016 11017 11018 11018 11019 11019 11020 11020 11020 11020 11020 11020 11020 11020 11019 11019 11019 11019 11018 11017 11016 11015 11014 11014 11013 11013 11012 11012 11011 11011 11010 11009 11008 11008 11007 11006 11005 11004 11003 11002 11001 11000 10998 10997 10996 10995 10994 10994 10993 10992 10992 10991 10989 10988 10987 10986 10985 10983 10982 10980
10966 10968 10970 10972 10975 10978 10980 10982 10984 10986 10988 10990 10993 10995 10996 10998 11000 11002 11003 11004 11006 11007 11009 11010 11011 11013 11014 11015 11016 11016 11017 11018 11019 11019 11019 11019 11019 11019 11018 11018 11018 11018 11017 11017 11016 11016 11015 11014 11013 11013 11012 11011 11011 11010 11009 11008 11007 11007 11006 11005 11005 11004 11003 11002 11000 10999 10998 10997 10996 10994 10994 10993 10993 10992 10991 10990 10989 10988 10987 10986 10985 10984 10982 10981 10979
10962 10964 10966 10969 10971 10973 10974 10976 10979 10981 10982 10984 10987 10989 10991 10993 10995 10997 10998 11000 11002 11004 11005 11006 11007 11009 11011 11012 11013 11014 11015 11016 11017 11017 11017 11017 11017 11017 11017 11017 11016 11016 11016 11015 11015 11015 11014 11014 11013 11012 11011 11011 11010 11009 11008 11007 11006 11005 11005 11004 11003 11002 11001 11000 10999 10998 10997 10996 10995 10994 10993 10993 10993 10991 10990 10989 10988 10986 10985 10984 10983 10982 10981 10979 10977
10957 10960 10963 10966 10968 10969 10970 10972 10974 10976 10978 10980 10981 10983 10986 10988 10989 10991 10993 10995 10997 10999 11000 11001 11003 11005 11007 11009 11010 11011 11013 11014 11015 11015 11016 11016 11016 11016 11015 11015 11015 11015 11014 11014 11013 11013 11013 11013 11012 11012 11011 11010 11009 11008 11007 11006 11005 11005 11003 11002 11001 11001 11000 10999 10997 10996 10995 10994 10994 10994 10993 10992 10992 10991 10989 10988 10987 10986 10984 10983 10981 10980 10979 10977 10975
10955 10958 10961 10964 10966 10968 10969 10970 10972 10974 10976 10978 10980 10982 10983 10984 10985 10987 10989 10991 10993 10995 10996 10997 10999 11001 11003 11005 11006 11008 11009 11011 11012 11013 11013 11014 11014 11014 11014 11013 11013 11013 11013 11012 11012 11011 11011 11011 11011 11011 11010 11009 11008 11007 11006 11006 11005 11004 11003 11001 11000 10999 10998 10997 10996 10994 10993 10993 10993 10993 10993 10991 10990 10990 10988 10987 10986 10984 10983 10982 10980 10978 10977 10976 10974
10952 10955 10958 10960 10963 10965 10966 10967 10969 10971 10974 10977 10979 10981 10982 10983 10985 10986 10988 10990 10991 10992 10993 10994 10996 10997 10999 11001 11003 11004 11006 11008 11009 11010 11011 11011 11012 11011 11011 11011 11011 11011 11011 11011 11010 11010 11010 11010 11010 11009 11009 11008 11007 11006 11005 11005 11004 11003 11002 11001 10999 10998 10996 10995 10993 10992 10992 10992 10992 10992 10991 10990 10989 10988 10987 10986 10985 10983 10981 10981 10979 10977 10976 10975 10973
10950 10952 10954 10956 10958 10960 10962 10963 10964 10966 10969 10973 10976 10978 10979 10981 10983 10985 10987 10989 10990 10991 10992 10992 10993 10994 10996 10998 11000 11001 11002 11004 11005 11006 11007 11008 11008 11008 11008 11009 11009 11009 11009 11009 11009 11008 11008 11008 11008 11008 11007 11006 11005 11004 11003 11003 11003 11002 11001 10999 10998 10997 10995 10993 10991 10990 10990 10990 10990 10990 10989 10989 10988 10987 10986 10985 10984 10982 10980 10979 10978 10977 10975 10974 10973
10943 10945 10947 10949 10951 10953 10956 10958 10960 10961 10962 10965 10969 10973 10976 10978 10980 10982 10984 10986 10988 10989 10991 10991 10992 10993 10994 10995 10996 10997 10998 11000 11002 11003 11004 11005 11005 11005 11005 11006 11006 11006 11007 11007 11007 11007 11007 11007 11007 11007 11006 11005 11004 11002 11001 11001 11001 11001 10999 10998 10997 10995 10994 10992 10990 10989 10988 10988 10987 10987 10987 10986 10986 10985 10984 10984 10982 10981 10979 10978 10978 10976 10974 10973 10972
10932 10934 10937 10940 10942 10945 10949 10953 10956 10958 10958 10959 10961 10964 10969 10973 10976 10978 10981 10983 10984 10986 10988 10989 10991 10991 10991 10992 10992 10993 10995 10997 10998 10999 11000 11001 11002 11002 11002 11003 11003 11003 11004 11005 11005 11005 11006 11006 11006 11006 11005 11004 11002 11000 10999 10998 10999 10999 10997 10996 10995 10994 10992 10990 10989 10988 10987 10985 10985 10984 10984 10984 10984 10983 10983 10982 10981 10979 10978 10977 10976 10975 10974 10972 10971
10925 10928 10930 10933 10936 10940 10944 10948 10951 10954 10956 10956 10956 10956 10958 10963 10968 10974 10978 10980 10982 10983 10985 10986 10987 10988 10988 10989 10989 10990 10992 10993 10994 10995 10997 10998 10998 10999 10999 11000 11000 11001 11002 11003 11003 11003 11003 11004 11004 11004 11003 11002 11000 10999 10996 10995 10996 10996 10995 10994 10993 10992 10990 10988 10987 10986 10985 10984 10983 10982 10982 10982 10982 10981 10981 10980 10979 10977 10976 10974 10974 10973 10972 10971 10969
10919 10922 10925 10928 10931 10935 10939 10943 10945 10948 10951 10952 10953 10952 10951 10952 10958 10965 10972 10977 10979 10981 10982 10983 10984 10984 10985 10986 10986 10987 10989 10990 10992 10992 10994 10995 10995 10996 10996 10997 10997 10998 11000 11000 11001 11001 11001 11002 11002 11001 11001 11000 10998 10996 10994 10992 10992 10993 10993 10991 10991 10990 10988 10986 10984 10983 10983 10982 10981 10980 10980 10980 10980 10979 10978 10978 10976 10975 10973 10972 10971 10970 10970 10969 10968
10913 10916 10919 10923 10926 10930 10933 10937 10939 10942 10945 10947 10948 10949 10948 10948 10949 10954 10961 10968 10974 10977 10979 10979 10980 10981 10982 10982 10983 10984 10985 10987 10989 10990 10992 10993 10993 10993 10994 10994 10995 10996 10997 10997 10998 10999 10999 11000 10999 10999 10998 10997 10996 10994 10992 10990 10990 10990 10990 10989 10988 10987 10986 10984 10982 10981 10980 10979 10979 10979 10979 10978 10978 10977 10976 10975 10974 10973 10971 10970 10968 10967 10967 10966 10965
10907 10910 10913 10917 10921 10924 10928 10932 10934 10937 10939 10940 10941 10943 10944 10945 10945 10947 10951 10955 10961 10967 10972 10974 10976 10977 10978 10979 10980 10980 10982 10984 10987 10988 10990 10991 10991 10991 10991 10991 10993 10993 10994 10994 10995 10996 10997 10997 10997 10997 10996 10995 10993 10991 10990 10988 10988 10988 10988 10986 10985 10983 10982 10981 10980 10978 10977 10977 10977 10977 10977 10976 10976 10975 10974 10973 10972 10971 10969 10968 10966 10964 10963 10963 10962
10899 10903 10907 10912 10915 10919 10923 10926 10928 10931 10933 10934 10936 10937 10939 10941 10942 10944 10946 10948 10950 10955 10961 10967 10971 10973 10974 10975 10976 10977 10978 10981 10983 10985 10987 10988 10989 10989 10989 10989 10990 10991 10991 10991 10992 10993 10994 10994 10994 10994 10993 10992 10990 10989 10987 10986 10986 10986 10985 10984 10981 10980 10979 10978 10977 10976 10975 10974 10974 10974 10974 10974 10973 10972 10971 10970 10969 10968 10967 10965 10964 10962 10960 10959 10959
10891 10895 10901 10906 10909 10912 10916 10919 10922 10926 10928 10929 10931 10933 10935 10938 10939 10941 10943 10945 10946 10948 10953 10959 10963 10966 10968 10970 10971 10972 10974 10976 10979 10981 10983 10985 10986 10986 10986 10987 10988 10989 10989 10989 10989 10991 10991 10992 10992 10991 10990 10989 10987 10986 10985 10984 10984 10983 10983 10981 10978 10976 10975 10975 10974 10974 10973 10972 10971 10970 10971 10971 10970 10970 10969 10968 10966 10965 10964 10963 10961 10960 10958 10956 10955
10883 10888 10893 10898 10902 10905 10908 10912 10916 10919 10922 10924 10925 10927 10930 10933 10935 10937 10939 10942 10943 10944 10947 10951 10955 10958 10961 10963 10965 10967 10969 10972 10974 10976 10979 10981 10982 10982 10983 10984 10986 10986 10986 10985 10986 10988 10988 10988 10988 10988 10986 10985 10984 10983 10982 10982 10982 10981 10980 10978 10976 10973 10972 10971 10971 10970 10969 10968 10968 10967 10967 10967 10967 10967 10966 10965 10963 10962 10961 10960 10958 10957 10955 10954 10952
10875 10879 10884 10890 10894 10897 10901 10905 10908 10912 10915 10917 10919 10922 10925 10927 10929 10931 10933 10936 10937 10938 10940 10944 10947 10950 10953 10956 10958 10961 10964 10967 10969 10971 10974 10976 10977 10978 10979 10981 10982 10982 10982 10982 10983 10985 10985 10985 10984 10983 10982 10981 10980 10980 10979 10980 10980 10979 10977 10975 10974 10972 10969 10968 10967 10966 10964 10964 10964 10963 10962 10962 10963 10963 10962 10961 10959 10958 10958 10957 10955 10954 10952 10951 10949
10866 10870 10876 10882 10886 10889 10894 10898 10900 10904 10908 10911 10913 10916 10920 10922 10923 10925 10926 10928 10930 10932 10935 10938 10941 10944 10946 10949 10952 10956 10959 10961 10963 10965 10968 10971 10973 10975 10976 10978 10978 10978 10978 10978 10979 10981 10982 10981 10980 10979 10978 10977 10977 10977 10976 10976 10976 10976 10974 10973 10971 10970 10968 10965 10963 10961 10960 10959 10960 10959 10959 10958 10958 10959 10958 10957 10955 10954 10954 10953 10951 10950 10949 10948 10946
10857 10862 10868 10873 10877 10881 10886 10889 10893 10896 10900 10903 10906 10910 10914 10917 10918 10919 10920 10922 10924 10926 10929 10932 10935 10937 10940 10944 10947 10951 10953 10955 10956 10958 10962 10966 10969 10971 10972 10973 10973 10973 10973 10974 10975 10976 10977 10976 10975 10975 10975 10974 10974 10974 10973 10973 10973 10972 10971 10970 10968 10967 10965 10963 10960 10957 10955 10955 10956 10956 10955 10955 10954 10954 10954 10952 10950 10950 10949 10948 10947 10946 10946 10945 10943
10848 10854 10859 10863 10867 10872 10876 10880 10884 10888 10892 10896 10899 10903 10906 10910 10912 10913 10915 10917 10919 10921 10924 10926 10929 10932 10935 10939 10942 10945 10947 10948 10950 10953 10958 10961 10964 10965 10966 10967 10968 10968 10969 10970 10970 10970 10971 10970 10970 10970 10971 10971 10971 10970 10970 10969 10969 10969 10968 10967 10965 10963 10961 10959 10957 10954 10952 10951 10951 10951 10951 10950 10950 10950 10949 10947 10945 10945 10944 10943 10942 10942 10941 10940 10938
10838 10844 10849 10853 10858 10862 10865 10869 10874 10879 10884 10888 10892 10895 10898 10902 10905 10907 10909 10911 10913 10916 10918 10921 10923 10926 10930 10933 10936 10939 10941 10942 10945 10949 10952 10953 10956 10958 10960 10962 10963 10964 10964 10965 10964 10964 10964 10964 10964 10964 10965 10966 10966 10966 10966 10965 10965 10964 10964 10963 10962 10960 10958 10956 10954 10952 10950 10948 10946 10945 10945 10946 10945 10944 10943 10941 10940 10939 10939 10938 10938 10937 10936 10935 10934
10829 10834 10839 10843 10847 10851 10856 10861 10865 10870 10875 10880 10883 10887 10890 10894 10897 10899 10902 10905 10907 10909 10912 10915 10917 10920 10923 10926 10929 10932 10934 10937 10941 10943 10944 10946 10950 10953 10955 10957 10958 10959 10959 10959 10958 10958 10958 10958 10958 10959 10960 10960 10961 10960 10960 10960 10959 10959 10959 10958 10957 10955 10954 10952 10951 10949 10947 10945 10943 10941 10941 10940 10940 10939 10937 10935 10934 10934 10933 10932 10932 10931 10930 10930 10929
10819 10824 10829 10833 10836 10842 10848 10853 10857 10861 10866 10871 10875 10879 10882 10886 10889 10892 10895 10899 10901 10904 10907 10909 10911 10913 10916 10919 10922 10925 10927 10931 10935 10938 10939 10941 10944 10946 10949 10952 10953 10954 10954 10953 10953 10953 10953 10954 10954 10954 10955 10955 10955 10955 10954 10954 10953 10953 10953 10952 10951 10950 10948 10947 10946 10945 10943 10940 10939 10938 10937 10936 10935 10934 10932 10929 10928 10928 10927 10926 10926 10925 10924 10924 10923
10807 10812 10818 10822 10827 10832 10838 10843 10847 10852 10858 10863 10867 10871 10875 10879 10882 10885 10889 10892 10895 10898 10900 10902 10904 10907 10910 10912 10915 10918 10921 10924 10928 10932 10934 10936 10938 10941 10944 10946 10948 10949 10949 10948 10948 10948 10948 10949 10949 10950 10950 10950 10950 10950 10949 10948 10948 10948 10948 10947 10946 10944 10943 10942 10941 10940 10937 10936 10935 10933 10933 10932 10931 10929 10927 10924 10923 10922 10921 10920 10920 10919 10918 10917 10917
10795 10801 10806 10812 10817 10822 10828 10832 10836 10841 10848 10854 10858 10863 10867 10871 10875 10878 10882 10885 10888 10890 10892 10895 10897 10900 10903 10906 10909 10911 10913 10917 10921 10925 10928 10930 10932 10935 10938 10940 10941 10942 10943 10943 10943 10944 10944 10945 10945 10945 10946 10945 10945 10944 10944 10943 10943 10942 10942 10942 10941 10940 10938 10937 10936 10934 10932 10931 10930 10929 10929 10928 10927 10925 10922 10920 10918 10917 10916 10915 10914 10914 10912 10911 10911
10784 10789 10794 10801 10807 10812 10817 10822 10826 10831 10837 10844 10849 10854 10858 10862 10866 10870 10874 10876 10879 10883 10885 10888 10891 10893 10896 10899 10901 10903 10906 10910 10914 10918 10922 10924 10926 10929 10932 10933 10934 10935 10936 10938 10939 10939 10940 10940 10940 10940 10940 10940 10939 10939 10938 10938 10938 10938 10937 10937 10937 10936 10935 10933 10932 10930 10928 10927 10926 10925 10924 10924 10922 10919 10917 10915 10913 10911 10911 10910 10910 10908 10907 10905 10905
10771 10777 10782 10788 10795 10801 10805 10810 10816 10821 10826 10832 10838 10844 10848 10853 10857 10861 10864 10868 10872 10875 10877 10879 10883 10885 10887 10890 10892 10895 10899 10904 10907 10912 10916 10918 10920 10922 10925 10926 10926 10928 10930 10932 10933 10934 10935 10935 10935 10934 10935 10935 10934 10933 10933 10933 10933 10932 10932 10931 10931 10931 10930 10929 10928 10925 10923 10922 10921 10921 10920 10919 10917 10914 10911 10909 10907 10905 10904 10905 10905 10903 10902 10901 10900
10758 10765 10771 10777 10784 10790 10794 10799 10805 10811 10816 10821 10827 10833 10838 10843 10848 10852 10855 10859 10862 10865 10868 10870 10873 10876 10879 10881 10884 10889 10893 10897 10901 10905 10909 10911 10913 10915 10917 10918 10920 10922 10923 10925 10926 10928 10929 10929 10929 10930 10930 10930 10929 10928 10928 10927 10927 10926 10926 10925 10925 10924 10924 10923 10922 10921 10918 10917 10917 10917 10916 10914 10912 10908 10905 10903 10900 10897 10897 10898 10899 10898 10896 10896 10895
10745 10752 10759 10766 10773 10780 10784 10788 10793 10800 10806 10812 10817 10822 10828 10833 10837 10842 10846 10849 10852 10856 10859 10862 10865 10868 10869 10871 10877 10882 10887 10890 10894 10898 10901 10903 10906 10908 10910 10911 10913 10915 10916 10918 10920 10922 10922 10923 10924 10925 10925 10925 10925 10924 10923 10922 10921 10920 10919 10919 10918 10918 10918 10917 10916 10915 10913 10912 10911 10911 10911 10909 10906 10903 10900 10897 10894 10891 10890 10891 10892 10891 10890 10890 10889
10731 10739 10746 10755 10763 10769 10773 10777 10782 10789 10796 10802 10807 10812 10817 10821 10826 10831 10836 10839 10843 10847 10850 10853 10856 10858 10859 10863 10869 10875 10878 10882 10886 10889 10892 10895 10898 10901 10903 10905 10906 10908 10909 10911 10913 10915 10916 10917 10918 10919 10919 10919 10918 10918 10918 10917 10916 10915 10914 10913 10913 10912 10911 10910 10909 10908 10907 10905 10905 10905 10904 10903 10901 10898 10895 10892 10889 10887 10885 10884 10884 10884 10883 10883 10882
10718 10725 10733 10742 10750 10757 10762 10767 10772 10778 10785 10791 10796 10801 10806 10811 10816 10821 10825 10829 10834 10837 10840 10843 10846 10848 10850 10855 10862 10866 10870 10874 10878 10881 10884 10888 10890 10893 10896 10898 10899 10900 10902 10904 10906 10908 10909 10910 10911 10913 10913 10912 10911 10911 10911 10911 10910 10910 10909 10908 10907 10906 10905 10903 10902 10902 10900 10898 10898 10898 10897 10896 10894 10892 10890 10887 10884 10882 10880 10878 10878 10877 10875 10875 10874
10704 10712 10719 10728 10737 10745 10751 10757 10762 10767 10774 10780 10786 10791 10796 10801 10805 10810 10815 10819 10824 10827 10830 10834 10836 10838 10841 10847 10853 10857 10861 10866 10870 10873 10876 10880 10882 10885 10887 10889 10890 10892 10895 10897 10898 10900 10902 10905 10906 10907 10907 10905 10904 10903 10903 10903 10904 10904 10904 10903 10903 10901 10899 10897 10895 10895 10893 10891 10890 10889 10889 10888 10886 10884 10882 10880 10878 10875 10873 10872 10872 10871 10869 10868 10866
10690 10698 10706 10714 10723 10731 10739 10746 10752 10757 10763 10770 10775 10780 10786 10791 10796 10801 10806 10811 10814 10817 10821 10824 10826 10828 10832 10838 10843 10848 10852 10857 10861 10865 10869 10872 10874 10876 10878 10880 10882 10885 10888 10890 10891 10894 10896 10899 10901 10901 10900 10898 10896 10895 10895 10895 10896 10896 10897 10897 10896 10894 10892 10890 10888 10887 10885 10884 10882 10881 10880 10878 10877 10876 10874 10872 10870 10868 10866 10865 10865 10865 10864 10862 10861
10676 10684 10692 10700 10709 10718 10725 10733 10741 10747 10753 10759 10765 10770 10776 10781 10787 10792 10797 10802 10806 10809 10812 10815 10817 10820 10825 10830 10834 10838 10842 10846 10851 10855 10859 10862 10864 10867 10870 10872 10875 10878 10880 10883 10886 10888 10890 10894 10897 10898 10893 10888 10886 10887 10886 10887 10889 10891 10893 10892 10889 10886 10884 10883 10880 10878 10877 10876 10875 10874 10873 10870 10868 10867 10865 10863 10862 10861 10859 10858 10858 10858 10857 10857 10855
10661 10670 10678 10687 10696 10704 10711 10720 10728 10735 10742 10748 10754 10760 10766 10772 10777 10783 10788 10792 10796 10800 10803 10806 10809 10812 10817 10821 10825 10828 10833 10837 10841 10845 10849 10852 10855 10858 10861 10865 10868 10870 10873 10875 10878 10881 10885 10891 10894 10889 10878 10873 10876 10878 10877 10876 10880 10885 10889 10889 10885 10880 10876 10874 10872 10869 10868 10867 10867 10866 10865 10863 10860 10859 10857 10855 10853 10852 10852 10852 10851 10851 10851 10851 10849
10647 10657 10665 10674 10683 10691 10698 10706 10714 10722 10729 10737 10743 10750 10756 10762 10767 10773 10778 10783 10787 10791 10794 10797 10800 10803 10808 10812 10816 10820 10824 10828 10831 10835 10839 10842 10846 10849 10852 10856 10859 10862 10864 10867 10869 10873 10879 10884 10882 10872 10865 10865 10870 10871 10868 10868 10873 10879 10883 10884 10881 10874 10869 10865 10863 10861 10859 10858 10857 10856 10855 10854 10852 10851 10849 10847 10845 10844 10844 10844 10844 10844 10843 10843 10842
10634 10644 10652 10661 10670 10678 10685 10693 10701 10709 10716 10724 10732 10739 10745 10751 10757 10763 10768 10773 10777 10781 10785 10788 10791 10794 10799 10803 10806 10810 10814 10818 10822 10826 10829 10833 10836 10839 10842 10846 10849 10852 10855 10858 10860 10864 10869 10870 10866 10861 10860 10862 10863 10862 10861 10862 10866 10871 10874 10876 10874 10868 10863 10859 10857 10854 10851 10849 10848 10846 10844 10843 10843 10841 10839 10838 10838 10837 10836 10836 10836 10836 10835 10834 10832
10622 10631 10639 10648 10657 10665 10673 10681 10688 10696 10703 10711 10719 10726 10733 10740 10746 10752 10758 10763 10767 10770 10774 10778 10782 10785 10789 10793 10797 10800 10804 10808 10812 10816 10819 10822 10826 10829 10832 10836 10839 10842 10845 10848 10851 10854 10857 10857 10855 10854 10855 10854 10853 10853 10854 10855 10856 10858 10861 10862 10862 10860 10856 10852 10849 10847 10843 10841 10839 10836 10835 10834 10834 10832 10830 10829 10829 10828 10826 10826 10827 10827 10825 10823 10822
10610 10619 10627 10635 10644 10653 10661 10669 10676 10684 10691 10698 10706 10714 10721 10728 10734 10741 10746 10752 10756 10760 10764 10768 10772 10776 10780 10783 10786 10790 10794 10798 10802 10805 10808 10811 10815 10818 10822 10826 10829 10831 10834 10838 10841 10844 10845 10846 10845 10845 10845 10844 10844 10846 10847 10847 10846 10847 10847 10848 10849 10848 10846 10843 10840 10838 10835 10832 10829 10827 10826 10826 10826 10825 10823 10822 10820 10818 10816 10816 10816 10817 10816 10814 10812
10598 10607 10616 10624 10632 10640 10649 10656 10664 10671 10679 10686 10694 10702 10709 10715 10722 10728 10734 10739 10744 10749 10754 10757 10761 10765 10769 10773 10777 10780 10784 10787 10791 10795 10798 10801 10804 10808 10812 10816 10818 10821 10824 10827 10830 10832 10834 10835 10835 10836 10836 10836 10836 10837 10838 10837 10836 10835 10835 10836 10835 10835 10834 10833 10830 10828 10826 10824 10821 10819 10818 10817 10817 10817 10816 10814 10812 10810 10808 10806 10805 10805 10805 10803 10801
10587 10596 10605 10612 10620 10628 10637 10645 10652 10659 10667 10675 10683 10690 10696 10703 10709 10716 10721 10727 10732 10737 10742 10746 10749 10753 10758 10762 10766 10770 10773 10777 10781 10784 10787 10790 10794 10798 10802 10805 10808 10810 10813 10816 10819 10821 10823 10824 10825 10826 10827 10827 10827 10827 10828 10827 10824 10823 10823 10823 10822 10822 10824 10823 10820 10818 10817 10815 10812 10811 10809 10808 10807 10807 10806 10804 10802 10800 10798 10797 10796 10794 10792 10790 10789
10574 10584 10593 10601 10610 10618 10626 10633 10640 10647 10655 10663 10671 10678 10684 10691 10697 10703 10709 10714 10720 10725 10730 10734 10737 10741 10746 10751 10755 10759 10763 10767 10771 10774 10777 10780 10784 10787 10791 10794 10797 10799 10801 10804 10807 10809 10811 10812 10814 10815 10815 10816 10816 10816 10816 10816 10815 10813 10813 10812 10811 10811 10812 10811 10810 10809 10807 10805 10803 10802 10801 10799 10798 10797 10795 10794 10792 10790 10787 10786 10785 10782 10780 10778 10778